User: anonymous   Login
Location: Huntsville
(41.2590°N, 111.7678°W)
Time: 21:27:38
(UTC+00:00)
Language:

Hubble Space Telescope - Orbit

View from above orbital plane
View from above orbital plane
View from above satellite
View from above satellite

Ground track
Ground track

The orbit data is extracted from the following two-line orbital elements,

1 20580U 90037B   22021.53183841  .00001418  00000-0  74241-4 0  9990
2 20580  28.4711  61.8339 0002353 249.7755 231.0197 15.09958762543986
Epoch (UTC): 21 January 2022 12:45:50
Eccentricity: 0.0002353
inclination: 28.4711°
perigee height: 535 km
apogee height: 538 km
right ascension of ascending node: 61.8339°
argument of perigee: 249.7755°
revolutions per day: 15.09958762
mean anomaly at epoch: 231.0197°
orbit number at epoch: 54398

The dashed part of the orbit path shows where the satellite is in the earth's shadow,  

DLR